Simultaneous Nadir Overpasses (SNOs) Predictions

Prediction of SNOs between GOES-16 and METOP-B Satellite Orbit:

Table of predicted SNOs for the next 14.0 days since TLE Epoch: 5/6/2023
Index Date Time (GOES-16) GOES-16 Lat,Lon METOP-B Lat,Lon Distance(km) Time Diff (sec)
1 05/08/2023 02:32:15 -0.03, -75.20 -0.08, -75.25 7.73 80
2 05/10/2023 14:30:26 0.02, -75.22 -0.07, -74.82 45.38 80
3 05/12/2023 02:49:25 -0.02, -75.22 -0.94, -79.42 478.48 80
4 05/13/2023 02:26:05 -0.02, -75.23 0.17, -74.42 91.83 80
5 05/14/2023 14:44:55 0.01, -75.26 0.83, -78.98 424.16 80
6 05/15/2023 14:26:55 0.01, -75.27 -0.28, -73.99 146.88 80
7 05/17/2023 02:45:54 -0.01, -75.29 -0.72, -78.58 375.12 80
8 05/18/2023 02:22:34 -0.01, -75.30 0.40, -73.59 196.26 80
9 05/19/2023 14:41:23 0.01, -75.34 0.64, -78.14 318.63 80
